{"data":{"norad_id":53267,"epoch":"2026-05-24T21:26:02.817888Z","epoch_age_seconds":77483,"freshness":"FRESH","line1":"1 53267U 22086AB  26144.89308817 -.00000320  00000+0 -20496-5 0  9994","line2":"2 53267  53.2134 212.0337 0001268  93.0555 267.0583 15.08827410212579","mean_motion":15.0882741,"eccentricity":0.0001268,"inclination_deg":53.2134,"raan_deg":212.0337,"arg_perigee_deg":93.0555,"mean_anomaly_deg":267.0583,"bstar":-2.0496e-6,"rev_number":21257,"period_min":95.438351030487,"perigee_km":538.90467971204,"apogee_km":540.65906393793,"semimajor_km":6917.918871825,"source":"CELESTRAK","updated_at":"2026-05-25T13:38:17.365545Z"}}